Location: Peebles
(55.6412°N, 3.1714°W)
Time: 05:48:55
(UTC+01:00)

Altair 2 - Pass Details

Date: 03 July 2022
Orbit: 702 x 2529 km, 96.4° (Epoch: 10 August)

Event Time Altitude Azimuth Distance (km) Brightness Sun altitude
Rises 01:54:17 0° 88° (E) 5,597 12.1 -11.0°
Reaches altitude 10° 01:59:27 10° 71° (ENE) 4,270 11.7 -10.9°
Maximum altitude 02:05:00 17° 38° (NE) 3,359 11.8 -10.7°
Drops below altitude 10° 02:09:42 10° 3° (N) 3,490 12.4 -10.6°
Sets 02:13:17 0° 344° (NNW) 4,166 12.5 -10.5°
